Impacts METAR Board INFO
IDs:

KMSP - Minneapolis-St Paul, MN, US

Updated at: 0039 UTC 14 Dec 2017
Potential Impact None Slight Moderate High
Time13/12Z 13/13Z 13/14Z 13/15Z 13/16Z 13/17Z 13/18Z 13/19Z 13/20Z 13/21Z 13/22Z 13/23Z 14/00Z
VIS10 10 1 10 10 10 10 10 10 9 10 9 9
CIG130 190 25 11 11 13 20 22 22 20 22 22 65
CoverOVCOVCOVCOVCOVCOVCOVCOVCOVCOVCOVCOVCOVC
FltCatVFRVFRIFRMVFRMVFRMVFRMVFRMVFRMVFRMVFRMVFRMVFRVFR
WX-----SN BR-----------------SN--
WDir340360340320340340340340330330340340330
WSpd4 7 11 13 15 17 18 18 13 17 14 16 14
WGst-- -- -- -- 25 27 29 25 22 24 21 -- --
Raw hourly METARs
KMSP 131153Z 34004KT 10SM OVC130 M01/M03 A2936 RMK AO2 PRESRR SLP953 4/002 T10111033 11011 21044 55016
KMSP 131253Z 36007KT 10SM FEW130 OVC190 M03/M04 A2936 RMK AO2 SLP953 T10281039
KMSP 131403Z 34011KT 1SM R30L/4000VP6000FT -SN BR SCT018 BKN025 OVC050 M03/M04 A2941 RMK AO2 P0000 T10281039
KMSP 131453Z 32013KT 10SM OVC011 M03/M04 A2945 RMK AO2 SNE31 SLP986 P0001 60001 T10331044 53031
KMSP 131553Z 34015G25KT 10SM OVC011 M03/M04 A2950 RMK AO2 SLP001 T10331044
KMSP 131653Z 34017G27KT 10SM OVC013 M03/M05 A2954 RMK AO2 PK WND 33027/1650 SLP013 T10281050
KMSP 131753Z 34018G29KT 10SM BKN020 OVC031 M04/M07 A2957 RMK AO2 PK WND 34030/1720 SLP026 4/002 60001 T10391072 11011 21039 51040
KMSP 131853Z 34018G25KT 10SM OVC022 M04/M08 A2961 RMK AO2 PK WND 34028/1819 SLP037 T10441078
KMSP 131953Z 33013G22KT 10SM OVC022 M04/M08 A2963 RMK AO2 PK WND 34027/1922 SLP045 T10391078
KMSP 132053Z 33017G24KT 9SM OVC020 M04/M08 A2968 RMK AO2 SLP060 T10441078 53033
KMSP 132153Z 34014G21KT 10SM OVC022 M04/M08 A2972 RMK AO2 SLP076 T10441078
KMSP 132253Z 34016KT 9SM -SN OVC022 M04/M08 A2977 RMK AO2 SNB14 SLP093 PCPN VRY LGT P0000 T10441078
KMSP 132353Z 33014KT 9SM FEW028 OVC065 M04/M08 A2982 RMK AO2 SNE50 SLP110 4/002 P0000 60000 T10441078 11039 21044 53048